This is the latest recevied weather packets stored in our database for station/object ac2ev. If no packets are shown the sender has not sent any weather packets the latest 10 day(s).
| Time | Temp. | Humidity | Pressure | Rain* | Wind** | Luminosity | Snow |
|---|---|---|---|---|---|---|---|
| 1777322450 | 13.89° C | 61% | 1019.4 hPa | 0 mm | - | - | - |
| 1777322148 | 13.89° C | 61% | 1019.5 hPa | 0 mm | - | - | - |
| 1777321846 | 13.89° C | 60% | 1019.4 hPa | 0 mm | - | - | - |
| 1777321544 | 14.44° C | 59% | 1019.5 hPa | 0 mm | - | - | - |
| 1777321244 | 14.44° C | 59% | 1019.6 hPa | 0 mm | - | - | - |
| 1777320945 | 14.44° C | 62% | 1019.7 hPa | 0 mm | - | - | - |
| 1777320643 | 14.44° C | 63% | 1019.8 hPa | 0 mm | - | - | - |
| 1777320340 | 14.44° C | 60% | 1020 hPa | 0 mm | - | - | - |
| 1777320038 | 14.44° C | 60% | 1020.1 hPa | 0 mm | - | - | - |
| 1777319736 | 14.44° C | 61% | 1020.2 hPa | 0 mm | - | - | - |
| 1777319434 | 14.44° C | 63% | 1020.5 hPa | 0 mm | - | - | - |
| 1777319131 | 13.89° C | 62% | 1020.7 hPa | 0 mm | - | - | - |
| 1777318832 | 14.44° C | 60% | 1020.7 hPa | 0 mm | - | - | - |
| 1777318531 | 14.44° C | 62% | 1020.7 hPa | 0 mm | - | - | - |
| 1777318229 | 14.44° C | 60% | 1020.8 hPa | 0 mm | - | - | - |
| 1777317924 | 14.44° C | 60% | 1020.9 hPa | 0 mm | - | - | - |
| 1777317617 | 14.44° C | 61% | 1021 hPa | 0 mm | - | - | - |
| 1777317313 | 14.44° C | 59% | 1020.9 hPa | 0 mm | - | - | - |
| 1777317005 | 13.89° C | 60% | 1021.1 hPa | 0 mm | - | - | - |
| 1777316705 | 13.89° C | 59% | 1021.2 hPa | 0 mm | - | - | - |
| 1777316404 | 13.89° C | 59% | 1021.3 hPa | 0 mm | - | - | - |
| 1777316104 | 13.89° C | 59% | 1021.3 hPa | 0 mm | - | - | - |
| 1777315803 | 14.44° C | 58% | 1021.3 hPa | 0 mm | - | - | - |
| 1777315504 | 14.44° C | 59% | 1021.3 hPa | 0 mm | - | - | - |
| 1777315203 | 14.44° C | 61% | 1021.4 hPa | 0 mm | - | - | - |
* Rain latest hour (hover to see other rain measurements)
** Current wind speed in m/s (hover to see current wind gust speed)